This is the latest recevied weather packets stored in our database for station/object AA5QJ. If no packets are shown the sender has not sent any weather packets the latest 1 day(s).
| Time | Temp. | Humidity | Pressure | Rain* | Wind** | Luminosity | Snow |
|---|---|---|---|---|---|---|---|
| 1777981974 | -7.22° C | 62% | 1008.5 hPa | 0 mm | 2.24 m/s, 266° | - | - |
| 1777981674 | 3.33° C | 62% | 1008.5 hPa | 0 mm | 2.24 m/s, 229° | - | - |
| 1777981374 | -18.33° C | 62% | 1008.5 hPa | 0 mm | 1.79 m/s, 269° | - | - |
| 1777981074 | -2.78° C | 62% | 1008.5 hPa | 0 mm | 1.79 m/s, 249° | - | - |
| 1777980776 | 1.11° C | 62% | 1008.5 hPa | 0 mm | 2.24 m/s, 238° | - | - |
| 1777980475 | 3.89° C | 62% | 1008.5 hPa | 0 mm | 2.68 m/s, 159° | - | - |
| 1777980175 | 4.44° C | 62% | 1008.5 hPa | 0 mm | 1.79 m/s, 231° | - | - |
| 1777979876 | 4.44° C | 62% | 1008.5 hPa | 0 mm | 1.34 m/s, 145° | - | - |
| 1777979576 | 4.44° C | 61% | 1008.5 hPa | 0 mm | 1.79 m/s, 198° | - | - |
| 1777979275 | 5° C | 61% | 1008.5 hPa | 0 mm | 0 m/s | - | - |
| 1777978975 | 3.33° C | 61% | 1008.2 hPa | 0 mm | 1.34 m/s, 240° | - | - |
| 1777978675 | 2.78° C | 61% | 1008.2 hPa | 0 mm | 0.89 m/s, 215° | - | - |
| 1777978375 | 2.22° C | 61% | 1008.2 hPa | 0 mm | 1.34 m/s, 134° | - | - |
| 1777978075 | 4.44° C | 61% | 1008.2 hPa | 0 mm | 1.79 m/s, 270° | - | - |
| 1777977774 | 7.78° C | 61% | 1008.2 hPa | 0 mm | 1.79 m/s, 228° | - | - |
| 1777977476 | 8.33° C | 61% | 1008.2 hPa | 0 mm | 1.34 m/s, 80° | - | - |
| 1777977175 | 8.89° C | 61% | 1008.2 hPa | 0 mm | 1.34 m/s, 174° | - | - |
| 1777976875 | -8.89° C | 61% | 1008.2 hPa | 0 mm | 1.79 m/s, 267° | - | - |
| 1777976575 | -7.22° C | 60% | 1008.2 hPa | 0 mm | 1.34 m/s, 155° | - | - |
| 1777976274 | -5.56° C | 59% | 1008.2 hPa | 0 mm | 1.79 m/s, 121° | - | - |
| 1777975974 | -3.33° C | 58% | 1008.2 hPa | 0 mm | 0.45 m/s, 115° | - | - |
| 1777975674 | -8.33° C | 58% | 1008.2 hPa | 0 mm | 1.34 m/s, 114° | - | - |
| 1777975374 | -7.78° C | 57% | 1008.2 hPa | 0 mm | 2.24 m/s, 173° | - | - |
| 1777975076 | 1.11° C | 57% | 1008.2 hPa | 0 mm | 1.79 m/s, 160° | - | - |
| 1777974776 | -2.78° C | 57% | 1008.2 hPa | 0 mm | 1.79 m/s, 117° | - | - |
* Rain latest hour (hover to see other rain measurements)
** Current wind speed in m/s (hover to see current wind gust speed)